Total_Precipitation_Accumulation
0.14 0.13 0.12 0.14 0.11 0.08 0.09 0.08 0.09 0.07 0.05 0.08 0.06 0.06 0.06 0.06 0.04 0.04 0.05 0.05 0.03 0.03 0.03 0.01 0.01 0.02 0.00 0.01 0.00 0.00 0.01 0.01 0.00 0.00 0.00 0.00 0.00 0.00 0.00 0.00 0.00 0.00 0.00 0.00 0.00 0.00 0.00 0.00 0.01 0.01 0.02 0.05 0.18 0.03 0.00 0.05 0.02 0.00 0.38 0.55 0.68 0.33 0.44 0.35 0.54 0.41 0.20 0.55 0.30 0.50 0.43 0.56 0.45 0.46 0.35 0.36 0.27 0.27 0.48 0.34 0.69 0.49 0.92 1.33 1.91 2.91 3.41 2.80
0.14 0.11 0.12 0.11 0.11 0.10 0.09 0.09 0.08 0.08 0.06 0.05 0.06 0.05 0.06 0.05 0.06 0.03 0.05 0.04 0.03 0.02 0.02 0.04 0.01 0.00 0.01 0.00 0.00 0.01 0.01 0.00 0.00 0.00 0.00 0.00 0.00 0.00 0.00 0.00 0.00 0.00 0.00 0.00 0.00 0.00 0.00 0.00 0.00 0.00 0.00 0.21 0.00 0.16 0.00 0.25 0.00 0.19 0.26 0.77 0.53 0.35 0.12 0.33 0.12 0.10 0.50 0.24 0.13 0.32 0.44 0.55 0.46 0.51 0.30 0.79 0.70 0.37 0.70 0.78 1.24 0.94 1.52 2.01 2.35 2.66 2.63 2.38
0.13 0.12 0.13 0.11 0.09 0.09 0.09 0.07 0.07 0.07 0.08 0.06 0.06 0.07 0.06 0.05 0.05 0.06 0.03 0.04 0.03 0.02 0.02 0.02 0.02 0.01 0.00 0.00 0.00 0.02 0.01 0.00 0.00 0.00 0.00 0.00 0.00 0.00 0.00 0.00 0.00 0.00 0.00 0.00 0.00 0.00 0.00 0.00 0.00 0.01 0.08 0.28 0.02 0.27 0.03 0.03 0.20 0.08 0.78 0.47 0.13 0.38 0.03 0.04 0.04 0.10 0.12 0.17 0.19 0.20 0.29 0.33 0.13 0.42 0.12 0.64 0.55 0.34 0.58 1.66 1.67 1.19 1.36 1.79 2.32 2.35 2.48 1.63
0.11 0.11 0.12 0.10 0.09 0.09 0.09 0.08 0.08 0.08 0.07 0.08 0.06 0.06 0.06 0.06 0.05 0.06 0.06 0.05 0.03 0.03 0.04 0.03 0.01 0.01 0.01 0.00 0.00 0.01 0.00 0.00 0.00 0.00 0.00 0.00 0.00 0.00 0.00 0.00 0.00 0.00 0.00 0.00 0.00 0.00 0.00 0.00 0.00 0.00 0.04 0.37 0.06 0.16 0.19 0.01 0.59 0.09 0.81 0.36 0.38 0.13 0.17 0.14 0.11 0.06 0.11 0.14 0.13 0.16 0.19 0.23 0.18 0.23 0.56 0.76 0.47 0.93 1.22 0.89 1.29 1.30 1.33 1.44 1.69 2.55 2.93 2.90
0.11 0.11 0.11 0.08 0.09 0.08 0.09 0.09 0.08 0.07 0.07 0.07 0.06 0.06 0.09 0.06 0.05 0.05 0.07 0.05 0.04 0.05 0.04 0.02 0.01 0.01 0.00 0.01 0.01 0.00 0.00 0.08 0.00 0.00 0.00 0.00 0.00 0.00 0.00 0.00 0.00 0.00 0.00 0.00 0.00 0.00 0.00 0.00 0.00 0.04 0.12 0.25 0.12 0.29 0.04 0.14 0.03 0.27 0.10 0.11 0.22 0.17 0.18 0.04 0.02 0.02 0.07 0.06 0.14 0.23 0.32 0.24 0.14 0.16 0.52 0.99 0.67 1.27 1.10 1.86 0.95 1.42 1.37 1.59 1.99 2.85 2.40 2.73
0.09 0.10 0.11 0.08 0.08 0.08 0.11 0.07 0.08 0.07 0.08 0.07 0.06 0.06 0.06 0.07 0.06 0.07 0.05 0.06 0.05 0.04 0.03 0.03 0.02 0.01 0.00 0.02 0.00 0.00 0.00 0.09 0.00 0.00 0.00 0.00 0.00 0.00 0.00 0.00 0.00 0.00 0.00 0.00 0.01 0.00 0.02 0.01 0.11 0.19 0.09 0.21 0.08 0.24 0.02 0.18 0.19 0.86 0.09 0.06 0.08 0.09 0.13 0.09 0.13 0.06 0.08 0.08 0.10 0.10 0.14 0.19 0.28 0.26 0.46 0.28 0.28 0.78 1.25 1.95 1.20 1.03 1.23 1.56 2.57 2.59 2.69 3.10
0.11 0.09 0.08 0.09 0.08 0.09 0.10 0.10 0.08 0.12 0.08 0.07 0.07 0.05 0.05 0.06 0.05 0.04 0.07 0.06 0.05 0.05 0.02 0.03 0.02 0.01 0.00 0.01 0.00 0.00 0.00 0.00 0.00 0.00 0.00 0.00 0.00 0.00 0.00 0.00 0.00 0.00 0.00 0.05 0.00 0.05 0.00 0.04 0.13 0.12 0.17 0.17 0.04 0.21 0.01 0.27 0.16 0.10 0.31 0.05 0.06 0.01 0.02 0.02 0.05 0.02 0.06 0.04 0.15 0.14 0.11 0.11 0.17 0.58 0.26 0.36 0.89 1.00 1.68 1.72 1.56 1.55 2.14 2.06 2.80 2.39 2.85 2.94
0.11 0.07 0.08 0.08 0.11 0.12 0.07 0.08 0.09 0.06 0.09 0.07 0.07 0.07 0.05 0.06 0.06 0.05 0.04 0.06 0.07 0.03 0.03 0.03 0.01 0.00 0.01 0.00 0.00 0.05 0.00 0.00 0.00 0.00 0.00 0.00 0.00 0.00 0.00 0.00 0.00 0.00 0.02 0.00 0.01 0.00 0.01 0.07 0.21 0.06 0.13 0.24 0.07 0.08 0.01 0.16 0.10 0.15 0.47 0.09 0.02 0.02 0.01 0.02 0.06 0.02 0.04 0.04 0.06 0.11 0.28 0.27 0.07 0.20 0.23 0.46 0.72 0.96 1.20 1.28 1.78 1.79 2.37 2.43 1.55 2.49 3.43 4.28
0.10 0.09 0.09 0.09 0.09 0.06 0.05 0.06 0.06 0.07 0.06 0.06 0.06 0.04 0.07 0.07 0.07 0.05 0.06 0.07 0.05 0.05 0.03 0.02 0.01 0.00 0.02 0.02 0.00 0.01 0.00 0.00 0.00 0.00 0.00 0.00 0.00 0.00 0.00 0.00 0.00 0.00 0.00 0.00 0.00 0.01 0.08 0.12 0.09 0.03 0.11 0.13 0.09 0.16 0.02 0.34 0.18 0.09 0.04 0.05 0.03 0.03 0.02 0.03 0.05 0.14 0.09 0.14 0.09 0.19 0.18 0.10 0.12 0.15 0.28 0.52 0.76 0.84 1.04 1.50 1.53 1.65 2.09 1.86 1.72 2.15 2.59 2.47
0.10 0.09 0.08 0.08 0.06 0.05 0.05 0.08 0.06 0.07 0.06 0.08 0.06 0.06 0.08 0.09 0.06 0.10 0.05 0.04 0.05 0.06 0.03 0.03 0.01 0.02 0.01 0.02 0.01 0.01 0.00 0.00 0.00 0.00 0.00 0.00 0.00 0.00 0.00 0.00 0.00 0.00 0.00 0.00 0.01 0.00 0.04 0.02 0.02 0.00 0.06 0.04 0.07 0.09 0.04 0.15 0.22 0.01 0.01 0.02 0.02 0.03 0.05 0.07 0.12 0.08 0.10 0.16 0.16 0.36 0.48 0.35 0.20 0.24 0.97 0.74 0.95 1.09 1.09 1.64 1.95 2.20 1.93 1.71 1.56 1.76 2.91 2.11
0.09 0.11 0.06 0.07 0.06 0.07 0.06 0.07 0.06 0.06 0.17 0.06 0.08 0.09 0.06 0.06 0.07 0.05 0.06 0.04 0.06 0.05 0.04 0.03 0.04 0.01 0.05 0.01 0.02 0.00 0.00 0.00 0.00 0.00 0.00 0.00 0.00 0.00 0.00 0.00 0.00 0.00 0.00 0.00 0.00 0.01 0.01 0.00 0.00 0.02 0.09 0.02 0.16 0.06 0.08 0.00 0.01 0.01 0.05 0.08 0.07 0.04 0.01 0.03 0.05 0.10 0.15 0.17 0.21 0.42 0.40 0.19 0.14 0.19 0.42 0.60 1.02 1.24 0.78 1.47 1.97 1.89 1.69 2.41 1.43 2.24 2.33 2.51
0.12 0.11 0.09 0.05 0.11 0.13 0.05 0.10 0.08 0.12 0.06 0.10 0.07 0.05 0.06 0.04 0.05 0.04 0.03 0.05 0.04 0.04 0.02 0.04 0.04 0.09 0.02 0.04 0.04 0.00 0.00 0.00 0.00 0.00 0.00 0.00 0.00 0.00 0.00 0.00 0.00 0.00 0.00 0.00 0.00 0.02 0.01 0.00 0.00 0.01 0.32 0.00 0.03 0.02 0.01 0.00 0.03 0.03 0.05 0.27 0.07 0.06 0.19 0.10 0.17 0.16 0.13 0.15 0.31 0.41 0.43 0.52 0.21 0.68 0.36 0.66 0.94 1.04 1.10 1.63 1.84 1.86 2.24 1.92 2.57 2.67 2.54 3.27
0.08 0.07 0.09 0.17 0.11 0.11 0.09 0.08 0.08 0.10 0.07 0.09 0.10 0.06 0.05 0.04 0.03 0.05 0.04 0.08 0.07 0.04 0.03 0.05 0.02 0.07 0.10 0.08 0.00 0.00 0.00 0.00 0.00 0.00 0.00 0.00 0.00 0.00 0.00 0.00 0.00 0.00 0.03 0.03 0.07 0.04 0.00 0.02 0.00 0.01 0.00 0.06 0.01 0.36 0.08 0.01 0.02 0.09 0.22 0.25 0.25 0.29 0.18 0.08 0.09 0.15 0.08 0.15 0.09 0.26 1.34 0.69 0.51 0.39 0.46 0.33 0.80 0.80 1.08 2.03 2.48 2.76 2.44 3.39 2.99 1.89 2.33 2.44
0.09 0.08 0.09 0.09 0.09 0.06 0.09 0.08 0.07 0.10 0.09 0.05 0.10 0.06 0.04 0.05 0.04 0.09 0.09 0.05 0.06 0.07 0.07 0.05 0.08 0.08 0.28 0.02 0.00 0.00 0.00 0.00 0.00 0.00 0.00 0.00 0.00 0.00 0.00 0.00 0.00 0.00 0.00 0.00 0.00 0.00 0.04 0.03 0.03 0.01 0.00 0.07 0.08 0.00 0.13 0.18 0.13 1.01 0.30 0.51 0.98 0.69 0.25 0.07 0.20 0.11 0.10 0.13 0.07 0.39 0.88 0.68 0.77 0.75 0.40 0.41 0.64 1.31 1.88 1.95 2.92 3.20 2.25 2.25 2.19 2.07 1.97 2.65
0.08 0.14 0.17 0.19 0.13 0.13 0.12 0.10 0.08 0.06 0.11 0.11 0.07 0.04 0.04 0.14 0.06 0.04 0.16 0.19 0.09 0.05 0.05 0.08 0.06 0.09 0.16 0.00 0.00 0.00 0.00 0.00 0.00 0.00 0.00 0.02 0.00 0.00 0.00 0.00 0.00 0.04 0.00 0.01 0.02 0.01 0.00 0.02 0.06 0.05 0.07 0.01 0.00 0.22 0.41 0.34 0.31 0.32 1.13 0.45 0.25 0.78 0.43 0.39 0.19 0.16 0.49 0.11 0.10 0.33 0.71 0.72 0.37 0.36 1.05 0.51 1.21 1.73 1.35 1.64 2.39 2.39 2.04 1.82 1.87 1.66 1.76 1.44
0.13 0.14 0.14 0.10 0.09 0.20 0.08 0.08 0.13 0.06 0.13 0.11 0.11 0.06 0.05 0.04 0.05 0.05 0.06 0.15 0.06 0.14 0.08 0.09 0.09 0.06 0.02 0.02 0.00 0.00 0.00 0.00 0.00 0.00 0.00 0.00 0.00 0.01 0.00 0.00 0.00 0.00 0.03 0.03 0.00 0.01 0.00 0.00 0.20 0.06 0.00 0.03 0.31 0.60 0.66 0.58 0.34 0.22 0.60 0.60 0.61 0.35 0.27 0.16 0.07 0.05 0.12 0.11 0.01 0.32 0.78 0.47 0.37 0.58 0.75 0.99 1.64 1.11 0.81 1.84 1.71 2.16 2.13 2.17 1.60 2.80 1.60 1.66
0.17 0.11 0.15 0.09 0.09 0.06 0.07 0.19 0.11 0.12 0.09 0.07 0.06 0.06 0.05 0.06 0.06 0.12 0.07 0.16 0.11 0.08 0.14 0.07 0.03 0.05 0.20 0.00 0.00 0.00 0.00 0.00 0.00 0.00 0.00 0.00 0.00 0.00 0.00 0.00 0.01 0.00 0.00 0.00 0.00 0.01 0.02 0.02 0.00 0.02 0.02 0.44 0.46 0.53 1.20 0.79 0.45 0.41 0.47 0.63 0.46 0.56 0.47 0.49 0.11 0.08 0.04 0.26 0.51 0.10 0.46 0.33 0.22 0.13 0.41 1.54 1.38 1.16 0.75 0.93 1.64 1.26 1.10 0.76 1.23 1.00 1.48 1.24
0.28 0.11 0.16 0.20 0.06 0.07 0.07 0.09 0.08 0.13 0.12 0.11 0.09 0.07 0.08 0.11 0.07 0.12 0.11 0.16 0.16 0.09 0.10 0.04 0.03 0.12 0.01 0.00 0.00 0.00 0.00 0.00 0.00 0.00 0.00 0.00 0.00 0.01 0.00 0.03 0.00 0.00 0.01 0.05 0.01 0.30 0.02 0.16 0.03 0.58 0.59 0.37 0.26 0.89 0.86 0.72 0.67 0.40 0.44 0.54 0.28 0.16 0.16 0.35 0.46 0.36 0.18 0.09 0.43 0.25 0.18 0.29 0.26 0.31 0.32 0.13 0.71 0.77 1.10 1.17 1.75 1.60 1.08 0.85 0.93 1.29 1.12 1.14
0.13 0.16 0.10 0.23 0.19 0.13 0.10 0.20 0.11 0.07 0.09 0.09 0.12 0.09 0.07 0.11 0.17 0.19 0.17 0.17 0.21 0.40 0.19 0.19 0.13 0.07 0.10 0.00 0.00 0.00 0.00 0.00 0.00 0.00 0.00 0.00 0.00 0.00 0.00 0.00 0.02 0.01 0.12 0.28 0.15 0.20 0.18 0.16 0.16 0.25 0.55 0.40 0.44 0.34 0.54 0.36 0.36 0.38 0.46 0.19 0.21 0.49 0.16 0.23 0.05 0.17 0.19 0.22 0.20 0.22 0.60 0.41 0.36 0.27 0.46 0.52 0.55 0.60 1.29 1.51 1.40 1.39 1.82 1.37 1.39 1.10 1.15 1.12
0.15 0.18 0.15 0.15 0.19 0.13 0.13 0.12 0.11 0.19 0.31 0.10 0.13 0.13 0.16 0.15 0.31 0.20 0.22 0.29 0.17 0.04 0.01 0.01 0.00 0.00 0.00 0.00 0.00 0.00 0.00 0.00 0.00 0.00 0.00 0.00 0.00 0.00 0.00 0.00 0.05 0.05 0.04 0.47 0.17 0.19 0.02 0.38 0.24 0.70 0.52 0.20 0.06 0.13 0.11 0.24 0.15 0.12 0.13 0.08 0.19 0.25 0.08 0.05 0.09 0.07 0.12 0.26 0.33 0.17 0.18 0.11 0.14 0.27 0.16 0.16 0.25 1.15 1.48 2.19 2.54 2.58 1.40 0.72 1.18 0.70 1.11 1.13
0.20 0.17 0.17 0.13 0.20 0.21 0.18 0.13 0.09 0.09 0.25 0.30 0.16 0.24 0.23 0.15 0.13 0.30 0.09 0.12 0.07 0.02 0.01 0.02 0.01 0.00 0.00 0.00 0.00 0.00 0.00 0.00 0.00 0.00 0.00 0.00 0.00 0.00 0.02 0.02 0.05 0.23 0.06 0.06 0.13 0.03 0.11 0.42 0.13 0.10 0.06 0.04 0.06 0.03 0.06 0.12 0.13 0.26 0.26 0.37 0.37 0.09 0.21 0.08 0.10 0.04 0.04 0.36 0.40 0.15 0.12 0.12 0.13 0.16 0.16 0.25 0.18 0.63 0.50 0.64 0.64 1.09 1.22 1.11 1.03 0.96 0.62 1.38
0.16 0.18 0.21 0.19 0.19 0.24 0.13 0.12 0.16 0.15 0.19 0.28 0.31 0.35 0.12 0.11 0.10 0.07 0.15 0.17 0.02 0.01 0.01 0.00 0.00 0.01 0.00 0.00 0.00 0.00 0.00 0.00 0.00 0.00 0.00 0.00 0.00 0.07 0.03 0.02 0.04 0.21 0.01 0.10 0.14 0.29 0.27 0.46 0.05 0.07 0.03 0.02 0.05 0.04 0.09 0.08 0.31 0.21 0.25 0.13 0.42 0.22 0.08 0.02 0.06 0.08 0.12 0.33 0.22 0.21 0.29 0.36 0.34 0.30 0.17 0.17 0.14 0.21 0.19 0.13 0.20 0.53 0.71 0.72 0.66 0.75 1.43 1.76
0.28 0.17 0.19 0.22 0.28 0.34 0.29 0.12 0.14 0.36 0.28 0.39 0.57 0.13 0.23 0.20 0.12 0.21 0.09 0.18 0.03 0.01 0.02 0.00 0.00 0.00 0.00 0.00 0.00 0.00 0.00 0.00 0.00 0.00 0.00 0.00 0.00 0.00 0.01 0.07 0.16 0.06 0.14 0.02 0.25 0.27 0.84 0.28 0.04 0.02 0.04 0.05 0.04 0.01 0.04 0.11 0.16 0.39 0.46 0.50 0.34 0.12 0.86 0.59 0.15 0.05 0.09 0.23 0.21 0.15 0.56 0.41 0.14 0.19 0.14 0.21 0.22 0.21 0.14 0.16 0.28 0.89 0.97 0.63 0.87 0.67 1.01 0.87
0.17 0.26 0.23 0.28 0.35 0.38 0.22 0.15 0.18 0.30 0.57 0.27 0.40 0.27 0.27 0.31 0.12 0.11 0.36 0.50 0.05 0.00 0.00 0.00 0.00 0.00 0.00 0.00 0.00 0.00 0.00 0.00 0.00 0.00 0.00 0.00 0.00 0.00 0.00 0.03 0.12 0.09 0.22 0.02 0.03 0.23 0.14 0.01 0.02 0.01 0.02 0.11 0.17 0.11 0.10 0.39 0.39 0.18 0.19 0.42 0.26 0.15 0.11 0.20 0.20 0.14 0.06 0.03 0.02 0.12 0.41 0.52 0.67 0.44 0.28 0.24 0.44 0.89 1.11 0.98 0.61 0.61 0.48 1.31 1.64 1.35 0.96 1.26
0.29 0.33 0.39 0.21 0.49 0.36 0.30 0.29 0.20 0.25 0.28 0.66 0.40 0.64 0.29 0.22 0.12 0.21 0.37 0.23 0.09 0.01 0.00 0.00 0.00 0.00 0.00 0.00 0.00 0.00 0.00 0.00 0.00 0.01 0.11 0.00 0.00 0.00 0.02 0.00 0.02 0.12 0.06 0.04 0.07 0.15 0.13 0.02 0.00 0.04 0.03 0.01 0.07 0.26 0.08 0.15 0.46 0.29 0.16 0.24 0.11 0.07 0.05 0.02 0.02 0.36 0.52 0.54 0.19 0.36 0.82 0.96 0.66 0.30 0.30 0.36 0.36 1.11 1.82 1.41 0.47 0.87 1.02 1.32 1.76 1.29 1.97 1.91
0.26 0.30 0.27 0.26 0.42 0.34 0.47 0.30 0.43 0.40 0.43 0.69 0.63 0.75 0.32 0.17 0.47 0.32 0.18 0.56 0.24 0.02 0.04 0.01 0.00 0.01 0.00 0.00 0.00 0.00 0.00 0.01 0.00 0.02 0.01 0.00 0.01 0.00 0.01 0.04 0.01 0.38 0.05 0.05 0.17 0.04 0.04 0.00 0.06 0.06 0.11 0.04 0.06 0.22 0.07 0.14 0.28 0.59 0.21 0.06 0.15 0.13 0.10 0.09 0.06 0.35 0.68 1.11 0.49 0.07 0.88 0.93 0.51 0.73 0.59 0.46 0.48 0.38 0.48 0.75 0.47 0.33 0.91 1.11 1.17 1.04 1.53 1.27
0.45 0.41 0.27 0.32 0.34 0.43 0.34 0.42 0.25 0.77 0.46 0.67 0.42 0.47 0.24 0.33 0.35 0.25 0.58 0.38 0.34 0.06 0.04 0.03 0.00 0.02 0.00 0.02 0.00 0.00 0.09 0.15 0.00 0.01 0.00 0.00 0.01 0.00 0.05 0.04 0.03 0.01 0.02 0.12 0.10 0.14 0.01 0.00 0.01 0.06 0.16 0.08 0.19 0.50 0.00 0.10 0.50 0.69 0.03 0.05 0.10 0.12 0.30 0.35 0.20 0.33 0.29 0.06 0.09 0.18 0.45 0.99 1.01 0.73 0.49 0.55 0.33 0.53 0.52 0.37 0.74 1.12 0.83 1.48 1.36 1.08 1.24 0.99
0.33 0.27 0.24 0.21 0.35 0.39 0.58 0.58 0.60 0.65 0.53 0.49 0.73 0.40 0.53 0.20 0.31 0.47 0.46 0.35 0.15 0.02 0.15 0.12 0.00 0.03 0.03 0.01 0.00 0.01 0.03 0.01 0.15 0.31 0.03 0.12 0.00 0.03 0.00 0.03 0.10 0.06 0.12 0.02 0.46 0.07 0.00 0.05 0.05 0.03 0.13 0.14 0.26 0.05 0.03 0.03 0.26 0.19 0.02 0.08 0.05 0.06 0.16 0.20 0.34 0.64 0.31 0.55 1.29 0.34 0.40 0.75 0.81 0.50 0.89 0.95 0.79 1.02 0.78 0.54 0.73 0.62 0.65 1.26 0.88 0.69 0.79 0.70
0.30 0.19 0.21 0.33 0.23 0.40 0.35 0.60 0.61 0.87 0.48 0.48 0.29 0.45 0.33 0.62 0.53 0.56 0.76 0.31 0.26 0.07 0.00 0.19 0.01 0.01 0.02 0.01 0.00 0.01 0.01 0.01 0.12 0.29 0.03 0.11 0.01 0.15 0.02 0.02 0.02 0.06 0.03 0.02 0.39 0.03 0.02 0.00 0.02 0.04 0.23 0.29 0.04 0.01 0.01 0.01 0.37 0.06 0.00 0.05 0.08 0.04 0.06 0.27 0.46 0.51 0.48 0.55 0.64 0.46 0.28 1.06 0.79 0.78 1.24 1.52 0.86 0.98 1.06 1.00 0.44 0.35 0.31 0.46 0.54 0.65 0.53 0.71
0.20 0.17 0.18 0.19 0.17 0.26 0.61 0.90 0.51 0.31 0.28 0.43 0.45 0.48 0.42 0.65 0.97 0.47 0.54 0.26 0.22 0.52 0.02 0.06 0.02 0.08 0.01 0.14 0.03 0.09 0.05 0.08 0.05 0.12 0.13 0.11 0.04 0.08 0.00 0.04 0.09 0.19 0.08 0.02 0.03 0.03 0.08 0.00 0.00 0.03 0.03 0.01 0.03 0.00 0.00 0.01 0.02 0.00 0.03 0.17 0.07 0.20 0.17 0.15 0.18 0.35 0.71 0.77 0.54 0.27 0.13 0.38 1.18 0.79 0.63 1.05 0.65 0.39 0.69 0.61 0.47 0.43 1.10 0.83 0.78 0.71 0.48 0.62
0.09 0.16 0.10 0.10 0.55 0.61 0.36 0.41 0.50 0.20 0.32 0.20 0.29 0.42 0.79 0.76 1.00 0.37 0.26 0.40 0.17 0.43 0.05 0.03 0.12 0.03 0.23 0.23 0.31 0.14 0.08 0.05 0.12 0.06 0.27 0.31 0.19 0.06 0.18 0.16 0.13 0.12 0.16 0.18 0.22 0.08 0.05 0.06 0.04 0.01 0.01 0.01 0.00 0.02 0.01 0.00 0.00 0.04 0.25 0.30 0.20 0.44 0.31 0.50 0.62 0.26 0.87 0.96 0.41 0.18 0.23 0.18 1.44 0.72 0.57 0.32 0.18 0.25 0.25 0.34 0.34 0.47 0.38 0.55 0.80 0.37 0.38 0.55
0.34 0.11 0.15 0.22 0.31 0.42 0.24 0.47 0.27 0.29 0.49 0.19 0.32 0.53 0.78 0.97 0.45 0.81 0.35 0.60 0.68 0.73 0.51 0.28 0.15 0.19 0.18 0.33 0.20 0.11 0.13 0.15 0.16 0.08 0.19 0.21 0.15 0.19 0.24 0.21 0.22 0.43 0.38 0.31 0.49 0.04 0.14 0.15 0.03 0.01 0.01 0.01 0.04 0.37 0.12 0.02 0.02 0.10 0.17 0.24 1.00 0.96 0.47 0.73 0.81 0.78 0.47 0.81 0.36 0.22 0.30 0.59 0.71 0.52 0.45 0.33 0.36 0.25 0.12 0.17 0.25 0.32 0.44 0.51 0.67 0.42 0.57 0.55
0.06 0.05 0.06 0.17 0.08 0.15 0.25 0.18 0.16 0.24 0.42 0.29 0.46 1.30 1.10 0.86 0.41 0.33 0.50 0.35 1.78 0.76 0.81 0.35 0.62 0.25 0.21 0.13 0.10 0.06 0.04 0.23 0.11 0.12 0.14 0.28 0.21 0.19 0.20 0.18 0.10 0.12 0.70 0.19 0.35 0.22 0.27 0.05 0.01 0.08 0.02 0.03 0.01 0.50 0.17 0.47 0.08 0.20 0.33 0.45 0.71 0.97 0.54 0.20 0.67 0.33 1.11 0.51 0.24 0.66 0.12 0.66 0.46 0.68 0.26 0.61 0.24 0.63 0.34 0.17 0.53 0.88 0.68 0.33 0.57 0.58 0.85 1.51
0.02 0.02 0.15 0.03 0.03 0.05 0.11 0.18 0.34 0.26 0.32 0.27 0.48 0.95 1.80 0.61 0.25 0.31 0.47 0.63 1.43 0.55 0.46 0.68 0.35 0.46 0.11 0.22 0.25 0.17 0.24 0.11 0.08 0.13 0.09 0.22 0.22 0.23 0.23 0.19 0.04 0.18 0.22 0.23 0.54 0.46 0.56 0.66 0.12 0.07 0.41 0.02 0.03 0.08 0.08 0.17 0.10 0.39 0.04 0.08 0.83 0.64 0.58 0.57 0.62 0.74 0.43 0.80 0.44 0.22 0.43 0.29 1.42 2.28 0.53 0.39 0.31 0.10 0.20 0.22 0.23 0.27 0.55 0.89 0.65 0.70 1.19 2.98
0.02 0.02 0.03 0.06 0.04 0.01 0.09 0.08 0.22 0.16 0.40 0.33 0.68 1.09 0.65 0.27 0.42 0.57 0.95 0.75 0.63 0.72 0.59 0.45 0.41 0.38 0.39 0.21 0.22 0.14 0.06 0.56 0.05 0.12 0.12 0.23 0.34 0.21 0.21 0.20 0.04 0.05 0.18 0.34 0.17 0.19 0.19 0.42 0.22 0.01 0.04 0.03 0.03 0.02 0.01 0.01 0.06 0.08 0.22 0.07 0.30 0.50 0.14 0.69 0.67 0.32 0.70 0.81 0.60 0.25 0.55 0.70 1.48 1.32 0.51 0.31 0.34 0.27 0.19 0.30 0.37 0.45 0.46 0.54 1.42 2.03 2.34 2.10
0.02 0.05 0.04 0.10 0.09 0.05 0.08 0.07 0.39 0.22 0.38 0.57 0.84 0.74 0.63 0.48 1.00 0.94 1.19 0.62 0.70 0.86 0.58 0.45 0.46 0.28 0.22 0.30 0.15 0.12 0.12 0.24 0.27 0.10 0.18 0.13 0.25 0.29 0.18 0.11 0.17 0.03 0.18 0.30 0.14 0.41 0.15 0.67 0.02 0.06 0.01 0.04 0.00 0.00 0.00 0.01 0.86 0.41 0.10 0.51 0.20 0.06 0.11 0.18 0.28 0.13 0.28 0.41 0.34 0.09 0.66 0.71 0.51 1.14 0.67 0.62 0.53 0.57 0.28 0.27 0.19 0.47 0.82 0.94 1.72 1.74 1.50 1.39
0.11 0.05 0.14 0.06 0.07 0.07 0.24 0.19 0.21 0.33 0.39 0.47 0.99 0.57 0.41 0.50 0.51 0.52 0.67 0.91 1.12 0.77 1.12 1.06 0.43 0.43 0.26 0.32 0.32 0.19 0.23 0.05 0.39 0.10 0.38 0.08 0.40 0.20 0.14 0.09 0.02 0.07 0.03 0.06 0.39 0.12 0.37 0.93 0.04 0.02 0.09 0.02 0.01 0.00 0.01 0.00 0.02 0.14 0.37 0.33 0.12 0.14 0.22 0.25 0.67 0.44 0.28 0.72 0.33 0.27 0.45 0.79 0.56 1.42 0.92 0.88 0.98 0.63 0.44 0.34 0.27 0.38 0.70 0.99 1.39 0.96 0.73 1.43
0.14 0.09 0.28 0.11 0.05 0.11 0.22 0.31 0.45 0.49 0.52 0.68 0.67 0.47 0.48 0.80 0.61 0.63 0.52 0.63 0.90 1.04 1.33 1.08 0.72 0.30 0.63 0.38 0.35 0.09 0.29 0.17 0.52 0.21 0.37 0.31 0.82 0.08 0.11 0.14 0.02 0.05 0.06 0.09 0.19 0.52 0.14 0.54 0.18 0.01 0.01 0.03 0.00 0.02 0.06 0.00 0.00 0.12 0.21 0.10 0.17 0.82 1.06 0.40 0.24 0.49 0.49 0.46 0.54 0.50 0.31 0.45 0.59 1.47 0.84 0.89 0.53 0.63 0.55 0.38 0.30 0.38 0.74 1.09 1.28 1.20 0.94 1.19
0.33 0.43 0.56 0.07 0.20 0.13 0.26 0.49 0.48 0.61 0.81 0.77 0.56 0.56 0.46 0.76 0.51 0.64 0.62 0.61 0.63 0.89 1.12 0.70 1.14 0.64 0.63 0.39 0.25 0.14 0.17 0.51 0.25 0.44 0.33 0.43 0.58 0.19 0.17 0.06 0.16 0.03 0.04 0.11 0.22 0.24 0.18 0.44 0.42 0.05 0.05 0.15 0.04 0.06 0.52 0.18 0.02 0.04 0.01 0.10 0.17 0.20 0.43 0.69 0.51 0.70 0.72 0.76 0.44 0.75 0.39 1.10 0.62 0.76 0.38 0.42 0.31 0.44 0.50 0.48 0.44 0.57 0.48 0.55 0.50 0.52 0.58 0.77
0.72 0.58 1.01 0.13 0.15 0.23 0.53 0.42 0.65 0.85 0.96 0.62 0.41 0.61 0.33 0.68 0.39 0.38 0.55 0.65 1.23 0.94 1.20 1.02 0.59 0.90 0.43 0.55 0.24 0.38 0.25 0.21 0.40 0.72 0.22 0.69 0.36 0.08 0.08 0.02 0.17 0.12 0.13 0.13 0.24 0.19 0.49 0.26 0.67 0.24 0.07 0.05 0.47 0.04 0.40 0.20 0.40 0.23 0.12 0.19 0.28 0.27 0.33 0.20 0.70 0.36 0.74 0.61 0.61 0.52 0.63 1.28 0.91 0.37 0.58 0.41 0.61 0.56 0.45 0.40 0.45 0.60 1.00 0.81 1.30 1.20 0.94 0.51
0.39 1.01 1.01 0.34 0.24 0.40 0.66 0.84 0.92 0.93 0.69 0.35 0.43 0.56 0.36 0.75 0.60 0.77 0.42 0.56 0.90 0.54 0.75 0.78 0.78 0.70 0.37 0.41 0.40 0.26 0.24 0.37 0.37 0.48 0.20 0.33 0.28 0.61 0.17 0.11 0.11 0.42 0.36 0.45 0.33 0.46 0.51 0.44 0.52 0.42 0.26 0.24 0.31 0.04 0.10 0.14 0.27 0.41 0.28 0.48 0.43 0.66 1.11 1.01 0.99 0.22 0.41 0.52 0.66 0.42 0.66 1.05 0.73 0.31 0.96 0.70 0.46 0.90 0.68 0.72 0.75 0.86 0.76 0.98 1.07 0.78 0.76 1.10
0.61 1.04 1.40 0.43 0.37 0.49 0.82 1.17 0.84 0.77 0.80 0.75 0.68 0.59 0.73 0.55 0.73 0.53 0.55 0.57 0.35 0.58 0.37 0.46 0.27 0.35 0.28 0.33 0.28 0.18 0.45 0.25 0.21 0.34 0.28 0.39 0.41 0.20 0.31 0.14 0.24 0.29 0.53 0.80 0.59 0.34 0.39 0.81 0.55 0.50 0.33 0.96 0.34 0.10 0.08 0.16 0.18 0.27 0.11 0.54 0.53 0.35 0.29 0.74 0.72 0.70 0.28 0.48 0.21 0.68 0.48 1.35 0.75 0.44 1.35 1.21 0.59 0.64 0.71 0.61 0.64 0.75 0.83 0.88 0.93 1.06 0.57 0.71
0.85 2.00 1.28 0.49 0.32 0.53 1.05 0.99 0.67 0.84 0.79 0.68 0.42 0.37 0.40 0.59 0.73 0.50 0.46 0.53 0.54 0.33 0.54 0.52 0.45 0.39 0.30 0.54 0.20 0.29 0.25 0.43 0.18 0.58 0.20 0.31 0.28 0.25 0.11 0.49 0.27 0.44 0.54 1.13 0.37 0.67 0.55 0.57 0.68 0.42 0.18 0.19 0.21 0.17 0.11 0.23 0.60 0.26 0.13 0.27 0.37 0.53 0.47 0.44 0.65 0.76 0.59 0.58 0.53 0.68 0.34 1.30 0.56 0.61 0.90 0.95 1.12 1.77 1.25 0.72 0.64 0.61 0.39 0.81 1.23 0.99 0.82 0.41
0.96 2.21 1.35 0.55 0.35 0.76 1.59 1.18 1.12 0.89 0.97 0.72 0.67 0.64 0.46 0.92 0.80 0.56 0.52 0.48 0.62 0.57 0.84 0.36 0.43 0.55 0.61 0.17 0.24 0.20 0.33 0.53 0.20 0.10 0.24 0.18 0.28 0.06 0.27 0.52 0.36 0.65 0.66 1.12 0.81 1.24 0.89 0.78 0.55 1.26 0.82 1.11 0.60 0.47 0.62 0.32 0.24 0.32 0.35 0.32 0.32 0.27 0.20 0.33 0.41 0.41 0.50 0.39 0.55 0.78 1.01 1.45 0.88 0.49 0.77 0.63 1.10 1.78 1.53 1.27 1.20 1.13 1.39 1.58 1.19 0.78 0.65 1.02
1.49 1.26 0.81 0.91 0.42 0.96 1.79 1.64 1.50 1.12 0.91 0.92 0.86 0.85 0.90 0.78 0.87 0.67 0.63 0.49 0.34 0.46 0.45 0.54 0.29 0.25 0.21 0.10 0.23 0.22 0.34 0.50 0.50 0.36 0.13 0.20 0.50 0.03 0.24 0.28 0.33 0.65 0.40 0.46 0.69 0.95 0.77 1.11 0.76 1.28 1.49 1.51 1.40 1.55 1.46 1.32 0.57 0.33 0.20 0.30 0.23 0.18 0.47 0.59 0.60 0.56 0.54 0.42 0.50 0.81 0.84 0.95 0.84 0.46 0.55 0.44 0.53 0.71 0.93 1.26 0.90 0.63 0.80 0.92 0.79 0.83 0.69 0.93
1.56 0.91 0.57 0.61 1.08 1.53 1.21 1.14 1.44 1.45 1.15 0.97 0.82 1.03 1.20 1.33 0.86 0.77 0.43 0.43 0.33 0.32 0.65 0.34 0.20 0.16 0.17 0.29 0.09 0.22 0.36 0.21 0.37 0.42 0.27 0.30 0.33 0.14 0.18 0.26 0.36 0.38 0.26 0.37 0.96 0.92 0.94 0.77 0.94 0.90 1.14 1.81 1.24 0.84 1.00 0.73 0.71 0.55 0.56 0.39 0.27 0.20 0.20 0.50 0.59 0.85 0.74 0.62 0.54 0.73 0.84 1.01 0.98 0.84 0.54 0.57 0.65 0.96 0.69 0.62 0.59 0.77 0.67 0.56 0.58 0.65 0.68 0.98
1.23 1.06 0.33 0.46 0.45 0.78 1.21 1.08 1.35 1.50 1.65 1.33 1.43 0.76 1.01 0.89 0.58 0.75 0.42 0.67 0.30 0.89 0.50 0.44 0.25 0.27 0.33 0.59 0.21 0.31 0.28 0.59 0.36 0.15 0.30 0.44 0.22 0.13 0.39 0.31 0.62 0.36 0.48 0.57 0.85 1.19 1.11 0.79 0.67 0.85 0.70 0.79 0.61 0.82 0.59 0.61 0.75 0.54 0.45 0.40 0.24 0.26 0.34 0.55 0.46 0.76 0.72 0.84 0.71 0.90 0.90 0.70 0.94 0.71 0.66 0.65 0.71 0.76 0.68 0.74 0.56 0.56 0.44 0.48 0.45 0.41 0.40 0.38
1.36 0.72 0.33 0.55 1.02 0.67 1.03 1.46 1.19 1.66 1.41 1.75 1.38 0.78 0.78 0.80 0.56 0.85 0.48 0.43 0.67 0.35 0.76 0.63 0.69 0.57 0.34 0.54 0.28 0.24 0.25 0.39 0.31 0.20 0.45 0.22 0.08 0.18 0.35 0.32 0.54 0.50 0.48 0.51 0.45 0.85 1.23 0.92 0.70 0.90 1.26 0.54 0.54 0.34 0.41 0.66 0.50 0.60 0.60 0.53 0.62 0.51 0.43 0.43 0.45 0.42 0.60 0.66 1.20 0.90 0.93 0.71 0.73 0.70 0.65 0.68 0.69 0.83 0.60 0.58 0.60 0.48 0.43 0.43 0.48 0.42 0.41 0.50
1.31 0.44 0.67 0.22 0.57 0.56 0.98 0.98 1.28 1.40 1.69 1.58 1.46 0.81 0.79 0.57 0.54 0.59 0.59 0.53 0.40 0.57 0.29 0.73 1.09 0.87 0.75 0.27 0.42 0.49 0.52 0.81 0.34 0.20 0.43 0.60 0.55 0.47 0.55 0.46 0.54 0.55 0.74 0.65 0.76 0.76 0.90 0.82 0.97 0.85 1.04 1.20 0.83 0.36 0.32 0.55 0.70 0.37 0.33 0.38 0.36 0.49 0.60 0.52 0.34 0.24 0.40 0.50 0.55 0.55 0.46 0.54 0.70 0.69 0.55 0.75 0.70 0.60 0.52 0.35 0.37 0.42 0.33 0.27 0.45 0.35 0.35 0.31
1.28 1.39 0.52 0.15 0.35 0.15 0.31 0.59 0.87 1.27 1.75 1.41 1.31 0.86 0.71 0.49 0.53 0.29 0.27 0.54 0.63 0.53 0.29 0.61 0.94 0.88 0.46 0.44 0.34 0.47 0.75 0.62 0.32 0.37 0.44 0.53 0.60 0.67 1.25 0.98 1.60 0.86 0.66 0.73 0.68 0.82 0.71 0.83 0.65 1.20 1.56 0.98 0.76 0.40 0.43 0.61 0.57 0.62 0.34 0.34 0.32 0.32 0.36 0.46 0.48 0.51 0.43 0.50 0.42 0.55 0.37 0.59 0.70 0.52 0.94 1.03 0.68 1.29 1.04 0.70 0.61 0.64 0.62 0.46 0.46 0.46 0.27 0.25
0.99 0.84 0.88 0.95 0.60 0.31 0.35 0.47 0.63 0.94 1.57 1.54 1.48 0.95 0.88 0.44 0.59 0.40 0.40 0.25 0.38 0.56 0.39 0.78 1.09 0.56 0.66 0.88 1.15 0.73 0.55 0.39 0.25 0.42 0.46 0.46 0.65 0.65 0.81 1.30 0.66 1.78 1.48 1.25 0.98 1.92 0.88 1.26 0.62 1.22 1.48 1.18 0.63 0.46 0.50 0.69 0.56 0.53 0.54 0.52 0.43 0.42 0.58 0.58 0.69 0.63 0.75 1.14 0.90 1.04 0.65 0.77 1.17 0.67 0.63 1.15 0.73 0.45 0.65 0.60 0.41 0.44 0.92 0.77 0.65 0.50 0.69 0.61
0.95 0.50 0.60 0.83 0.94 0.26 0.48 0.33 0.52 0.76 0.98 1.33 1.60 1.27 1.20 0.94 0.86 0.44 0.94 0.48 0.48 0.28 0.52 0.86 1.72 1.35 1.43 1.78 1.04 0.32 0.51 0.25 0.26 0.22 0.28 0.15 0.29 0.22 0.84 0.83 0.61 0.80 1.16 0.94 1.20 1.28 1.05 0.66 0.77 1.24 1.64 1.26 1.31 0.65 0.71 0.59 0.67 1.15 1.00 0.68 0.55 0.61 0.46 0.43 0.43 0.47 0.64 0.87 1.26 1.41 1.10 1.04 0.97 0.84 0.75 1.02 0.70 0.55 0.49 0.54 1.12 0.92 0.67 0.69 0.75 0.37 0.17 0.14